JILIN-01 GAOFEN 3D 28 (52445 NORAD) Tracking and Keplerian Element Data

This shows tracking and keplerian element data for the satellite.

Feedback or suggestion? Click here.




ElementValue
Catalog52445
NameJILIN-01 GAOFEN 3D 28
Epoch Orbit239
Epoch Day140.88506479
Epoch Year2022
RAAN205.4978
Inclination97.6782
Eccentricity0.0013886
Argument of Perigee212.1566
Mean Anonmoly265.9894
Mean Motion15.09581235
Decay Rate-1.455E-05
L11 52445U 22048C 22140.88506479 -.00001455 00000+0 -86365-4 0 9990
L22 52445 97.6782 205.4978 0013886 212.1566 265.9894 15.09581235 2391

Live tracking and technical data element details for JILIN-01 GAOFEN 3D 28 (NORAD 52445). JILIN-01 GAOFEN 3D 28 can be tracked NOW for your location showing map with azimuth and elevation plus other details from your city location.

Track the satellite on the map from your city or location and see movement details for azimuth, elevation, latitude, longitude, range, height, and movement on the map or in text.







IsCatalogInMostPopularTable: catalog: 52445, numindb: 1
Update: records affected: 1



GetName: 52445 JILIN-01 GAOFEN 3D 28

Hit Count: updated at: Mon, 23 May 2022 18:16:14 GMT